Weather History for Bentonville, AR

Change the Weather History Date:

Wednesday, November 9, 2011

  Actual Average Record
Temperature  
Mean Temperature 46 °F -  
Max Temperature 53 °F 60 °F 81 °F (1980)
Min Temperature 39 °F 37 °F 11 °F (1991)
Degree Days  
Heating Degree Days 19    
Moisture  
Dew Point 33 °F    
Average Humidity 65    
Maximum Humidity 93    
Minimum Humidity 35    
Precipitation  
Precipitation 0.00 in - - ()
Sea Level Pressure  
Sea Level Pressure 30.17 in    
Wind  
Wind Speed 12 mph (NW)    
Max Wind Speed 20 mph    
Max Gust Speed 28 mph    
Visibility 10 miles    
Events      
Averages and records for this station are not official NWS values.
T = Trace of Precipitation, MM = Missing Value Source: NWS Daily Summary

Daily Weather History Graph

Daily Weather History Graph

Search for Another Location

Airport:

Trip Planner

Search our weather history database for the weather conditions in past years. The results will help you decide how hot, cold, wet, or windy it might be!

Date:

Astronomy

Nov. 09, 2011 Rise Set
Actual Time 6:47 AM CST 5:13 PM CST
Civil Twilight 6:20 AM CST 5:40 PM CST
Nautical Twilight 5:49 AM CST 6:11 PM CST
Astronomical Twilight 5:19 AM CST 6:41 PM CST
Moon 4:25 PM CST (11/9) 5:44 AM CST (11/9)
Length of Visible Light 11h 19m
Length of Day
10h 25m
Waxing Gibbous, 99% of the Moon is Illuminated
Nov 9
Waxing Gibbous
Nov 10
Full
Nov 18
Last Quarter
Nov 25
New
Dec 2
First Quarter

Hourly Weather History & Observations

Time (CST) Temp. Windchill Dew Point Humidity Pressure Visibility Wind Dir Wind Speed Gust Speed Precip Events Conditions
12:15 AM 46.4 °F 40.1 °F 44.6 °F 93% 29.92 in 9.0 mi West 15.0 mph 19.6 mph N/A   Overcast
12:35 AM 46.4 °F 40.1 °F 42.8 °F 87% 29.92 in 10.0 mi West 15.0 mph 21.9 mph N/A   Overcast
12:55 AM 46.4 °F 39.8 °F 42.8 °F 87% 29.93 in 8.0 mi West 16.1 mph 21.9 mph N/A   Overcast
1:15 AM 44.6 °F 37.8 °F 42.8 °F 93% 29.95 in 7.0 mi West 15.0 mph 24.2 mph N/A   Overcast
1:55 AM 44.6 °F 38.1 °F 41.0 °F 87% 29.97 in 9.0 mi West 13.8 mph 19.6 mph N/A   Overcast
2:15 AM 44.6 °F 38.8 °F 41.0 °F 87% 29.97 in 7.0 mi West 11.5 mph 16.1 mph N/A   Overcast
2:35 AM 42.8 °F 34.8 °F 39.2 °F 87% 30.00 in 6.0 mi WNW 17.3 mph 21.9 mph N/A   Overcast
2:55 AM 42.8 °F 36.2 °F 37.4 °F 81% 30.00 in 5.0 mi WNW 12.7 mph 20.7 mph N/A   Overcast
3:15 AM 42.8 °F 35.1 °F 37.4 °F 81% 30.00 in 10.0 mi NW 16.1 mph 20.7 mph N/A   Overcast
3:35 AM 39.2 °F 30.5 °F 35.6 °F 87% 30.02 in 6.0 mi NW 16.1 mph 24.2 mph N/A   Overcast
3:55 AM 39.2 °F 31.2 °F 35.6 °F 87% 30.04 in 10.0 mi WNW 13.8 mph 25.3 mph N/A   Overcast
4:15 AM 39.2 °F 30.5 °F 35.6 °F 87% 30.05 in 10.0 mi WNW 16.1 mph 23.0 mph N/A   Overcast
4:35 AM 39.2 °F 29.6 °F 33.8 °F 81% 30.06 in 10.0 mi NW 19.6 mph 27.6 mph N/A   Overcast
4:55 AM 39.2 °F 32.5 °F 35.6 °F 87% 30.07 in 10.0 mi NW 10.4 mph - N/A   Overcast
5:15 AM 39.2 °F 31.6 °F 35.6 °F 87% 30.09 in 10.0 mi NW 12.7 mph 18.4 mph N/A   Overcast
5:35 AM 39.2 °F 31.2 °F 35.6 °F 87% 30.10 in 10.0 mi NW 13.8 mph 17.3 mph N/A   Overcast
5:55 AM 39.2 °F 32.0 °F 33.8 °F 81% 30.11 in 10.0 mi NW 11.5 mph 17.3 mph N/A   Overcast
6:15 AM 39.2 °F 34.2 °F 35.6 °F 87% 30.12 in 10.0 mi NNW 6.9 mph 16.1 mph N/A   Overcast
6:35 AM 39.2 °F 32.5 °F 35.6 °F 87% 30.13 in 10.0 mi NW 10.4 mph 16.1 mph N/A   Overcast
6:55 AM 39.2 °F 31.6 °F 33.8 °F 81% 30.14 in 10.0 mi NNW 12.7 mph 20.7 mph N/A   Overcast
7:15 AM 39.2 °F 32.5 °F 33.8 °F 81% 30.15 in 10.0 mi NNW 10.4 mph 16.1 mph N/A   Overcast
7:35 AM 39.2 °F 33.6 °F 35.6 °F 87% 30.18 in 10.0 mi NNW 8.1 mph - N/A   Overcast
8:15 AM 41.0 °F 35.8 °F 33.8 °F 76% 30.20 in 10.0 mi NNW 8.1 mph 19.6 mph N/A   Overcast
8:35 AM 42.8 °F 37.5 °F 35.6 °F 76% 30.21 in 10.0 mi NNW 9.2 mph - N/A   Overcast
8:55 AM 42.8 °F 35.8 °F 33.8 °F 70% 30.23 in 10.0 mi North 13.8 mph 19.6 mph N/A   Overcast
9:15 AM 42.8 °F 36.6 °F 35.6 °F 76% 30.23 in 10.0 mi NNW 11.5 mph 19.6 mph N/A   Overcast
9:35 AM 44.6 °F 39.2 °F 33.8 °F 66% 30.24 in 10.0 mi North 10.4 mph 17.3 mph N/A   Mostly Cloudy
9:55 AM 44.6 °F 39.2 °F 33.8 °F 66% 30.24 in 10.0 mi NNW 10.4 mph 19.6 mph N/A   Mostly Cloudy
10:35 AM 46.4 °F 41.9 °F 33.8 °F 62% 30.26 in 10.0 mi NNW 9.2 mph - N/A   Partly Cloudy
10:55 AM 48.2 °F - 33.8 °F 58% 30.26 in 10.0 mi NNW 8.1 mph 19.6 mph N/A   Partly Cloudy
11:15 AM 48.2 °F - 33.8 °F 58% 30.26 in 10.0 mi NNW 8.1 mph - N/A   Clear
11:35 AM 50.0 °F - 33.8 °F 54% 30.26 in 10.0 mi North 15.0 mph 19.6 mph N/A   Clear
11:55 AM 51.8 °F - 33.8 °F 50% 30.26 in 10.0 mi NNW 9.2 mph - N/A   Clear
12:15 PM 51.8 °F - 30.2 °F 44% 30.25 in 10.0 mi NW 9.2 mph - N/A   Clear
12:35 PM 51.8 °F - 32.0 °F 47% 30.25 in 10.0 mi NNW 10.4 mph 16.1 mph N/A   Clear
12:55 PM 51.8 °F - 32.0 °F 47% 30.24 in 10.0 mi NW 9.2 mph 16.1 mph N/A   Clear
1:15 PM 51.8 °F - 30.2 °F 44% 30.24 in 10.0 mi NW 11.5 mph - N/A   Clear
1:35 PM 53.6 °F - 30.2 °F 41% 30.24 in 10.0 mi NNW 8.1 mph - N/A   Clear
1:55 PM 53.6 °F - 30.2 °F 41% 30.24 in 10.0 mi WNW 11.5 mph - N/A   Clear
2:15 PM 53.6 °F - 32.0 °F 44% 30.25 in 10.0 mi NNW 9.2 mph 16.1 mph N/A   Clear
2:35 PM 53.6 °F - 32.0 °F 44% 30.25 in 10.0 mi NW 12.7 mph - N/A   Partly Cloudy
2:55 PM 53.6 °F - 30.2 °F 41% 30.25 in 10.0 mi NW 12.7 mph - N/A   Clear
3:15 PM 53.6 °F - 30.2 °F 41% 30.25 in 10.0 mi NNW 10.4 mph - N/A   Clear
3:35 PM 53.6 °F - 28.4 °F 38% 30.26 in 10.0 mi NW 10.4 mph 18.4 mph N/A   Clear
3:55 PM 53.6 °F - 26.6 °F 35% 30.25 in 10.0 mi NNW 10.4 mph 17.3 mph N/A   Clear
4:15 PM 51.8 °F - 30.2 °F 44% 30.26 in 10.0 mi NW 10.4 mph - N/A   Clear
4:35 PM 51.8 °F - 26.6 °F 38% 30.26 in 10.0 mi NW 10.4 mph 17.3 mph N/A   Clear
4:55 PM 51.8 °F - 28.4 °F 41% 30.26 in 10.0 mi NW 5.8 mph - N/A   Clear
5:15 PM 50.0 °F - 26.6 °F 40% 30.26 in 10.0 mi NNW 9.2 mph 17.3 mph N/A   Clear
5:55 PM 46.4 °F 44.3 °F 28.4 °F 50% 30.27 in 10.0 mi WNW 4.6 mph - N/A   Clear
6:15 PM 46.4 °F 45.2 °F 28.4 °F 50% 30.27 in 10.0 mi WNW 3.5 mph - N/A   Clear
6:55 PM 46.4 °F 43.5 °F 28.4 °F 50% 30.28 in 10.0 mi NW 5.8 mph - N/A   Clear
7:15 PM 46.4 °F 43.5 °F 28.4 °F 50% 30.28 in 10.0 mi NW 5.8 mph - N/A   Clear
7:35 PM 44.6 °F 41.4 °F 28.4 °F 53% 30.29 in 10.0 mi NW 5.8 mph - N/A   Clear
8:15 PM 44.6 °F 42.2 °F 26.6 °F 49% 30.29 in 10.0 mi NW 4.6 mph - N/A   Clear
8:35 PM 44.6 °F 42.2 °F 28.4 °F 53% 30.30 in 10.0 mi NW 4.6 mph - N/A   Clear
8:55 PM 42.8 °F 41.1 °F 28.4 °F 57% 30.31 in 10.0 mi WNW 3.5 mph - N/A   Clear
9:15 PM 39.2 °F - 28.4 °F 65% 30.31 in 10.0 mi Calm Calm - N/A   Clear
9:35 PM 39.2 °F 37.0 °F 28.4 °F 65% 30.31 in 10.0 mi WNW 3.5 mph - N/A   Clear
9:55 PM 39.2 °F - 28.4 °F 65% 30.32 in 10.0 mi Calm Calm - N/A   Clear
10:15 PM 39.2 °F - 28.4 °F 65% 30.32 in 10.0 mi Calm Calm - N/A   Clear
10:35 PM 39.2 °F - 28.4 °F 65% 30.32 in 10.0 mi Calm Calm - N/A   Clear
10:55 PM 37.4 °F - 28.4 °F 70% 30.32 in 10.0 mi Calm Calm - N/A   Clear
11:15 PM 37.4 °F 34.9 °F 28.4 °F 70% 30.32 in 10.0 mi WNW 3.5 mph - N/A   Clear
11:35 PM 37.4 °F - 28.4 °F 70% 30.32 in 10.0 mi Calm Calm - N/A   Clear
11:55 PM 37.4 °F - 28.4 °F 70% 30.32 in 10.0 mi Calm Calm - N/A   Clear